Regional Weather Roundup
Issued by NWS Huntsville, AL

Current Version | Previous Version | Text Only | Print | Product List | Glossary On
Versions: 1 2 3 4 5 6 7 8 9 10 11 12 13 14 15 16 17 18 19 20 21 22 23 24 25 26 27 28 29 30 31 32 33 34 35 36 37 38 39 40 41 42 43 44 45 46 47 48 49 50
000
ASUS44 KHUN 010010
RWRHUN

WEATHER ROUNDUP FOR THE TENNESSEE VALLEY
NATIONAL WEATHER SERVICE HUNTSVILLE AL
700 PM CDT TUE SEP 30 2014

ALZ001>004-010100-
NORTHWEST ALABAMA

CITY           SKY/WX    TMP DP  RH WIND       PRES   REMARKS
SHOALS AIRPORT PTCLDY    73  62  68 CALM      29.90R
6HR MIN TEMP:  73; 6HR MAX TEMP:  89;

SHOALS TVA RES   N/A     75 N/A N/A MISG        N/A
$$

ALZ005>007-016-010100-
NORTH CENTRAL ALABAMA

CITY           SKY/WX    TMP DP  RH WIND       PRES   REMARKS
DECATUR AP     CLEAR     74  59  59 CALM      29.90R
6HR MIN TEMP:  74; 6HR MAX TEMP:  86;

HUNTSVILLE AP  PTCLDY    75  60  59 CALM      29.89S
6HR MIN TEMP:  75; 6HR MAX TEMP:  88;

HUN NWS/UAH      N/A     78  57  47 SE2         N/A
MERIDIANVILLE  PTCLDY    73  55  53 CALM      29.90R
VINEMONT AP    FAIR      70  60  71 CALM      29.94R
$$

ALZ008>010-010100-
NORTHEAST ALABAMA

CITY           SKY/WX    TMP DP  RH WIND       PRES   REMARKS
ALBERTVILLE    CLEAR     72  61  68 CALM      29.91R
FORT PAYNE     CLEAR     68  57  68 CALM      29.91R
SCOTTSBORO AP  CLEAR     72  64  78 CALM      29.90S
SCOTTSBORO HCN   N/A     70 N/A N/A MISG        N/A
VALLEY HEAD      N/A     68 N/A N/A MISG        N/A
$$

TNZ076-096-097-010100-
SOUTHEASTERN MIDDLE TENNESSEE

CITY           SKY/WX    TMP DP  RH WIND       PRES   REMARKS
FAYETTEVILLE     N/A     72  57  60 NE3       29.91S
TULLAHOMA      CLEAR     70  61  73 CALM      29.93S
WINCHESTER     CLEAR     70  61  73 CALM      29.92R
$$

...SURROUNDING SITES...

CITY           SKY/WX    TMP DP  RH WIND       PRES   REMARKS
ATLANTA        PTCLDY    79  58  48 NW3       29.91R
ANNISTON       CLEAR     71  62  73 CALM      29.90R
BIRMINGHAM     CLEAR     75  61  61 CALM      29.92R
CHATTANOOGA    PTCLDY    76  61  59 CALM      29.90R
CORINTH          N/A     73  66  78 CALM      29.88S
DALTON         CLEAR     68  64  88 CALM      29.91R
GADSDEN        CLEAR     72  57  60 CALM      29.89R
GOLDEN TRNGL   PTCLDY    81  61  50 E3        29.87S
HALEYVILLE     MOCLDY    74  65  73 CALM      29.93S
JACKSON TN     CLEAR     72  63  73 CALM      29.88S
LEWISBURG      FAIR      71  61  70 CALM      29.90R
MEMPHIS        MOCLDY    82  59  45 E6        29.86F
MURFREESBORO   FAIR      78  52  40 NE5       29.90R
NASHVILLE      MOCLDY    78  50  37 E5        29.90S
OXFORD MS      FAIR      73  68  83 CALM      29.89S
ROME           CLEAR     72  60  66 CALM      29.89R
SAVANNAH       PTCLDY    70  66  88 CALM      29.89S
TUPELO         PTCLDY    76  59  55 CALM      29.87S
TUSCALOOSA     PTCLDY    78  60  53 E3        29.87R
$$

...GULF COAST WEATHER...

CITY           SKY/WX    TMP DP  RH WIND       PRES   REMARKS
GULFPORT       PTCLDY    78  72  81 S3        29.86R
PASCAGOULA     CLEAR     74  70  87 CALM      29.86R
MOBILE         PTCLDY    75  69  81 NE3       29.88R
GULF SHORES    CLEAR     75  69  82 CALM      29.87S
PENSACOLA      CLOUDY    76  69  79 NE5       29.87R
DESTIN         CLOUDY    76  67  73 NE5       29.88R
PANAMA CITY    CLOUDY    75  72  91 N2        29.88S
APPALACHICOLA  CLOUDY    77  71  82 N6        29.87R
$$



USA.gov is the U.S. government's official web portal to all federal, state and local government web resources and services.